ソーホー彗星

C/1996 Q3 ( SOHO )

English version
Home page
Updated on May 12, 1997

---------------------------------------------------------------------

・ プロフィール

発見日 1996年8月30日
発見光度
発見者 SOHO-LASCO coronagraph C3

・ 軌道要素

T 1996 Aug. 30.86907 TT                                 Marsden
q   0.0046014            (2000.0)            P               Q
                   Peri.   49.61542     +0.21442317     -0.91860869
                   Node   326.99719     -0.97311794     -0.17167025
e   1.0            Incl.  142.45296     +0.08404868     +0.35593173
>From 10 observations 1996 Aug. 30.

---------------------------------------------------------------------

軌道要素は Dr. Brian G. Marsden の計算によるもので、 M.P.E.C. 1997-J07 に掲載されたものです。

---------------------------------------------------------------------

Copyright(C) Seiichi Yoshida (comet@aerith.net). All rights reserved.